Location: Barrio Pajares
(40.5500°N, 4.1667°W)
Time: 16:57:19
(UTC+00:00)

Hubble Space Telescope - Pass Details

Date: 18 April 2024
Orbit: 511 x 515 km, 28.5° (Epoch: 23 May)

Event Time Altitude Azimuth Distance (km) Brightness Sun altitude
Rises 19:26:04 0° 245° (WSW) 2,603 5.0 -5.6°
Reaches altitude 10° 19:29:53 10° 208° (SSW) 1,716 3.4 -6.3°
Maximum altitude 19:30:58 11° 192° (SSW) 1,657 3.2 -6.5°
Drops below altitude 10° 19:32:03 10° 176° (S) 1,715 3.1 -6.7°
Enters shadow 19:34:35 - 148° (SSE) 2,223 3.4 -7.2°
